www.pogodaiklimat.ru

Погода и климат >> Архив погоды >> Гана >> Тема


ПОГОДА в Тема

  • Прогноз погоды в Тема
  • Монитор погоды в Тема

АРХИВ ПОГОДЫ в Тема

Время (UTC), дата Ветер
(напр.,м/с)
 
Видим.   Явления Облачность Т
(С)
Тd
(С)
f
(%)
Тe
(С)
Тes
(С)
Комфортность P
(гПа)
Po
(гПа)
Тmin
(С)
Tmax
(С)
R
(мм)
R24
(мм)
S
(см)
21 16.09 ЮЗ 4 10 км 5/4 300 м
[Sc Ci sp]
+26.0 +24.6 92 +37 +37 очень
душно
1011.7 1009.6
00 17.09 ЮЗ 4 10 км 5/5 300 м
[Sc]
+25.8 +24.0 90 +36 +36 очень
душно
1012.6 1010.5
06 17.09 ЮЗ 4 10 км в посл. час дождь 9/5 300 м
[Sc Ac trans]
+25.0 +23.6 92 +34 +34 очень
душно
1011.9 1009.8 +25.0 0.8
09 17.09 ЮЗ 3 12 км 8/6 330 м
[Cu Sc Ac trans Ci sp]
+27.5 +24.2 82 +38 +41 очень
душно
1013.0 1010.9
12 17.09 ЮЗ 5 16 км 9/3 500 м
[Cu med, cong Ac trans Cs]
+29.5 +24.8 76 +42 +47 опасность
перегрева
1011.5 1009.4
15 17.09 ЮЗ 5 18 км 5/0
[Ac trans Ci sp]
+28.8 +24.4 77 +40 +45 очень
душно
1008.7 1006.6
00 18.09 ЮЗ 4 10 км {гроза, дождь} 9/5 330 м
[Sc Ac trans]
+26.0 +24.4 91 +36 +36 очень
душно
1010.8 1008.7 0.4
03 18.09 СЗ 3 10 км 9/6 330 м
[Sc Ac trans]
+25.9 +23.8 88 +35 +35 очень
душно
1010.6 1008.5
09 18.09 ЮЗ 3 15 км 9/5 360 м
[Sc Ac trans]
+27.1 +23.6 81 +37 +39 очень
душно
1013.0 1010.9
12 18.09 СЗ 5 18 км 9/6 360 м
[Cu Sc Ac trans]
+28.5 +24.5 79 +40 +43 очень
душно
1011.8 1009.7
15 18.09 ЮЗ 4 12 км гроза, ливневой дождь 9/8 330 м
[Cb cap Ac trans]
+26.2 +24.5 90 +37 +38 очень
душно
1014.5 1012.4
18 18.09 ЮЗ 4 18 км {гроза, дождь} 10/3 330 м
[Sc Ac trans Ci sp]
+25.5 +23.6 89 +35 +35 очень
душно
1011.0 1008.9 +30.8 1
00 19.09 ЮЗ 1 10 км 9/9
[Cb calv]
+25.1 +23.2 89 +34 +34 очень
душно
1011.1 1009.0
03 19.09 ЮЗ 3 10 км 9/5 300 м
[Sc Ac trans]
+24.8 +23.0 90 +33 +33 очень
душно
1009.9 1007.8
09 19.09 ЮЗ 2 14 км 9/5 330 м
[Sc Ac As]
+26.1 +23.5 86 +35 +38 очень
душно
1013.1 1011.0
15 19.09 ЮЗ 2 14 км 9/5 480 м
[Cu med, cong Ac trans]
+27.0 +23.7 82 +37 +40 очень
душно
1009.7 1007.6
21 19.09 ЮЗ 3 12 км 6/6 330 м
[Sc]
+25.9 +24.5 92 +36 +36 очень
душно
1011.5 1009.4
00 20.09 ЮЗ 3 12 км 9/9 330 м
[Sc]
+26.0 +24.6 92 +37 +37 очень
душно
1012.2 1010.1
06 20.09 СЗ 2 14 км 8/1 330 м
[Sc Ac trans Cs]
+25.2 +24.0 93 +35 +35 очень
душно
1012.0 1009.9 +25.2
09 20.09 Ю 3 14 км 9/4 300 м
[Sc Ac trans Cs]
+26.0 +24.0 89 +36 +39 очень
душно
1014.0 1011.9
12 20.09 Ю 4 14 км 8/4 480 м
[Cu med, cong Ac trans Ci sp]
+28.2 +23.8 77 +39 +45 очень
душно
1012.4 1010.3
15 20.09 ЮЗ 4 18 км 6/3 500 м
[Cu med, cong Ac trans Ci sp]
+28.0 +23.8 78 +39 +43 очень
душно
1010.6 1008.5
21 20.09 З 2 10 км 8/3 330 м
[Cb cap]
+25.0 +24.1 95 +34 +34 очень
душно
1012.8 1010.7
00 21.09 ЮЗ 3 10 км 6/6 300 м
[Sc]
+25.3 +24.2 94 +35 +35 очень
душно
1012.3 1010.2
09 21.09 0 н/о +24.4 1014.1
12 21.09 ЮЗ 4 16 км 5/4 500 м
[Cu med, cong Ac trans]
+29.5 +23.7 71 +40 +49 очень
душно
1012.2 1010.1
15 21.09 ЮЗ 5 16 км 4/3 500 м
[Cu med, cong Ac trans]
+28.8 +23.9 75 +40 +43 очень
душно
1010.2 1008.1
00 22.09 ЮЗ 4 10 км 8/4 300 м
[Sc Ac trans]
+26.0 +24.4 91 +36 +36 очень
душно
1012.6 1010.5
03 22.09 ЮЗ 4 10 км 8/6 300 м
[Sc Ac trans]
+25.8 +24.0 90 +36 +36 очень
душно
1011.7 1009.6
06 22.09 ЮЗ 4 10 км 8/3 300 м
[Sc Ac trans Ci sp]
+25.2 +23.6 91 +34 +34 очень
душно
1011.8 1009.7 +25.0
09 22.09 З 3 12 км 9/6 330 м
[Cu Sc Ac trans]
+28.0 +23.8 78 +39 +41 очень
душно
1012.4 1010.3
12 22.09 ЮЗ 3 16 км 6/4 500 м
[Cu med, cong Ac trans Ci sp]
+29.5 +23.7 71 +40 +49 очень
душно
1011.5 1009.4
15 22.09 ЮЗ 4 18 км 9/3 540 м
[Cu med, cong Ac trans]
+28.1 +24.3 80 +39 +42 очень
душно
1010.2 1008.1
21 22.09 ЮЗ 3 12 км 9/9 330 м
[Sc]
+26.1 +24.0 88 +36 +36 очень
душно
1011.3 1009.2
00 23.09 ЮЗ 3 10 км 6/4 330 м
[Sc Ac trans]
+25.7 +23.9 90 +35 +35 очень
душно
1012.0 1009.9
03 23.09 ЮЗ 2 10 км 4/4 330 м
[Sc]
+25.5 +23.9 91 +35 +35 очень
душно
1010.9 1008.8
06 23.09 ЮЗ 2 12 км 9/5 330 м
[Sc Ac trans]
+25.4 +24.3 94 +35 +35 очень
душно
1012.0 1009.9 +25.2
09 23.09 ЮЗ 4 16 км 5/3 480 м
[Cu med, cong Ac trans]
+29.0 +23.4 72 +39 +43 очень
душно
1013.4 1011.3
12 23.09 ЮЗ 4 16 км 6/3 500 м
[Cu med, cong Ci sp]
+28.8 +23.8 74 +39 +49 очень
душно
1011.7 1009.6
15 23.09 ЮЗ 4 16 км 5/3 500 м
[Cu med, cong Ci sp]
+28.5 +23.5 74 +39 +43 очень
душно
1010.0 1007.9

 

Местоположение метеостанции Тема (Гана): широта 5.62 долгота 0.00 высота над уровнем моря 18 м.

В архиве по умолчанию представлена погода в Тема за последнюю неделю. Архивные данные за месяц целиком и за предыдущие месяцы, начиная с января 2011 года, Вы можете получить, выбрав интересующий диапазон дат из раскрывающегося списка и нажав кнопку "Ввод!".


*Определитесь, кто Вы:
робот инопланетянин человек

Внимание! Время в таблицах - всемирное. Для получения местного времени необходимо прибавить поправку, которая равна 1 ч.

Смотрите также архив погоды в соседних городах и на ближайших метеорологических станциях:

Погода в Аккра (Гана) (19 км)
Погода в Акюсе (Гана) (55 км)
Погода в Кофоридуа (Гана) (58 км)
Погода в Ада (Гана) (72 км)
Погода в Акатзи (Гана) (105 км)
Погода в Аким Ода (Гана) (114 км)
Погода в Хо (Гана) (121 км)
Погода в Солтпонде (Гана) (127 км)
Погода в Абетифи (Гана) (143 км)
Погода в Ломе (Того) (151 км)

Пояснения к столбцам:

Ветер - указаны скорость ветра в м/с - средняя за 10 мин, порывы в срок и между сроками (в фигурных скобках) и направление, откуда дует ветер: С - северный, СВ - северо-восточный, В - восточный, ЮВ - юго-восточный, Ю - южный, ЮЗ - юго-западный, З - западный, СЗ - северо-западный.
Видимость - горизонтальная дальность видимости в метрах или километрах. При видимости от 1 до 10 км при отсутствии осадков обычно наблюдается дымка, при ухудшении видимости до 1 км и менее - туман. В сухую погоду видимость может ухудшаться дымом, пылью или мглою.
Явления - указаны атмосферные явления, наблюдавшиеся в срок или в последний час перед сроком; фигурными скобками обозначены явления, наблюдавшиеся между сроками (за 1-3 часа до срока); квадратными скобками обозначены град или гололедные отложения с указанием их диаметра в мм.
Облачность - указаны через наклонную черту общая и нижняя облачность в баллах и высота нижней границы облаков в метрах; квадратными скобками обозначены формы облаков: Ci - перистые, Cs - перисто-слоистые, Cc - перисто-кучевые, Ac - высококучевые, As - высокослоистые, Sc - слоисто-кучевые, Ns - слоисто-дождевые, Cu - кучевые, Cb - кучево-дождевые. Подробнее классификацию облаков см. в Атласе облаков (PDF).
T - Температура воздуха - температура, измеренная на высоте 2 м над землей.
Td - Температура точки росы - температура, при понижении до которой содержащийся в воздухе водяной пар достигнет насыщения.
f - Относительная влажность воздуха - влажноcть воздуха, измеренная на высоте 2 м над землей.
Te - Эффективная температура - температура, которую ощущает одетый по сезону человек в тени. Характеристика душности погоды. При расчете учитывается влияние влажности воздуха и скорости ветра на теплоощущения человека.
Tes - Эффективная температура на солнце - температура, которую ощущает человек, с поправкой на солнечный нагрев. Характеристика знойности погоды. Зависит от высоты солнца над горизонтом, облачности и скорости ветра. Ночью, в пасмурную погоду, а также при ветре 12 м/с и более поправка равна нулю.
P - Атмосферное давление - приведенное к уровню моря атмосферное давление.
Po - Атмосферное давление - измеренное на уровне метеостанции атмосферное давление.
Tmin - Минимальная температура - минимум температуры воздуха на высоте 2 м над землей.
Tmax - Максимальная температура - максимум температуры воздуха на высоте 2 м над землей.
R - Количество осадков - Количество выпавших осадков за период времени, мм. При наведении курсора мыши на число - период времени, за который выпало указанное количество осадков.
R24 - Количество осадков - Количество выпавших осадков за 24 часа, мм.
S - Снежный покров - Высота снежного покрова, см. При наведении курсора мыши на число - состояние снежного покрова и степень покрытия местности в баллах.